Hourly Weather Bolshie Ozeranki

Today, 19 June, Saturday

Time Temperature Precipitation Wind Pressure Humidity
00:00 +17°C° 0 mm 3 mps 750 mmHg 85%
01:00 +17°C° 0 mm 3 mps 749 mmHg 87%
02:00 +17°C° 0 mm 2 mps 749 mmHg 88%
03:00 +16°C° 0 mm 2 mps 749 mmHg 88%
04:00 +16°C° 0 mm 2 mps 749 mmHg 89%
05:00 +16°C° 0 mm 2 mps 749 mmHg 90%
06:00 +18°C° 0 mm 2 mps 749 mmHg 84%
07:00 +20°C° 0 mm 2 mps 749 mmHg 79%
08:00 +23°C° 0 mm 2 mps 749 mmHg 74%
09:00 +25°C° 0 mm 3 mps 749 mmHg 70%
10:00 +26°C° 0 mm 3 mps 749 mmHg 67%
11:00 +27°C° 0 mm 4 mps 749 mmHg 63%
12:00 +28°C° 0 mm 4 mps 749 mmHg 60%
13:00 +29°C° 0 mm 3 mps 749 mmHg 57%
14:00 +29°C° 0 mm 3 mps 748 mmHg 53%
15:00 +29°C° 0 mm 3 mps 748 mmHg 55%
16:00 +29°C° 0 mm 3 mps 748 mmHg 57%
17:00 +29°C° 0 mm 3 mps 748 mmHg 59%
18:00 +27°C° 0 mm 3 mps 748 mmHg 65%
19:00 +25°C° 0 mm 3 mps 748 mmHg 71%
20:00 +24°C° 0 mm 3 mps 748 mmHg 77%
21:00 +22°C° 0 mm 3 mps 748 mmHg 79%
22:00 +21°C° 0 mm 3 mps 747 mmHg 82%
23:00 +20°C° 0 mm 3 mps 747 mmHg 84%

Tomorrow, 20 June, Sunday

Time Temperature Precipitation Wind Pressure Humidity
00:00 +19°C° 0 mm 3 mps 748 mmHg 85%
01:00 +19°C° 0 mm 2 mps 748 mmHg 87%
02:00 +18°C° 0 mm 2 mps 748 mmHg 89%
03:00 +18°C° 0 mm 2 mps 748 mmHg 89%
04:00 +18°C° 0 mm 2 mps 747 mmHg 89%
05:00 +18°C° 0 mm 2 mps 747 mmHg 89%
06:00 +20°C° 0 mm 2 mps 747 mmHg 84%
07:00 +22°C° 0 mm 3 mps 747 mmHg 80%
08:00 +23°C° 0 mm 4 mps 747 mmHg 75%
09:00 +26°C° 0 mm 4 mps 747 mmHg 71%
10:00 +27°C° 0 mm 5 mps 747 mmHg 67%
11:00 +28°C° 0 mm 5 mps 747 mmHg 64%
12:00 +29°C° 0 mm 5 mps 747 mmHg 60%
13:00 +29°C° 0 mm 5 mps 747 mmHg 57%
14:00 +30°C° 0 mm 4 mps 746 mmHg 54%
15:00 +29°C° 0.1 mm 4 mps 746 mmHg 57%
16:00 +29°C° 0.1 mm 4 mps 746 mmHg 60%
17:00 +29°C° 0.1 mm 4 mps 745 mmHg 64%
18:00 +28°C° 0.2 mm 3 mps 745 mmHg 70%
19:00 +26°C° 0.2 mm 3 mps 745 mmHg 76%
20:00 +25°C° 0.2 mm 3 mps 745 mmHg 82%
21:00 +24°C° 0 mm 3 mps 745 mmHg 84%
22:00 +22°C° 0 mm 3 mps 745 mmHg 86%
23:00 +21°C° 0 mm 3 mps 745 mmHg 89%

Day after tomorrow, 21 June, Monday

Time Temperature Precipitation Wind Pressure Humidity
00:00 +20°C° 0.1 mm 3 mps 745 mmHg 90%
01:00 +19°C° 0.1 mm 3 mps 745 mmHg 91%
02:00 +19°C° 0.1 mm 3 mps 745 mmHg 92%
03:00 +19°C° 0 mm 3 mps 745 mmHg 92%
04:00 +18°C° 0 mm 3 mps 745 mmHg 93%
05:00 +18°C° 0 mm 3 mps 745 mmHg 93%
06:00 +19°C° 0 mm 3 mps 745 mmHg 88%
07:00 +21°C° 0 mm 4 mps 745 mmHg 84%
08:00 +22°C° 0 mm 4 mps 745 mmHg 79%
09:00 +25°C° 0 mm 5 mps 745 mmHg 73%
10:00 +26°C° 0 mm 5 mps 744 mmHg 67%
11:00 +27°C° 0 mm 5 mps 744 mmHg 61%
12:00 +28°C° 0 mm 5 mps 744 mmHg 58%
13:00 +28°C° 0 mm 5 mps 744 mmHg 56%
14:00 +29°C° 0 mm 5 mps 743 mmHg 54%
15:00 +28°C° 0.3 mm 5 mps 743 mmHg 60%
16:00 +27°C° 0.3 mm 4 mps 743 mmHg 66%
17:00 +26°C° 0.3 mm 4 mps 743 mmHg 72%
18:00 +25°C° 0.5 mm 4 mps 743 mmHg 76%
19:00 +24°C° 0.5 mm 3 mps 743 mmHg 80%
20:00 +22°C° 0.5 mm 3 mps 742 mmHg 85%
21:00 +22°C° 0 mm 3 mps 743 mmHg 87%
22:00 +21°C° 0 mm 3 mps 743 mmHg 89%
23:00 +20°C° 0 mm 3 mps 743 mmHg 91%

22 June, Tuesday

Time Temperature Precipitation Wind Pressure Humidity
00:00 +20°C° 0 mm 3 mps 743 mmHg 92%
01:00 +19°C° 0 mm 3 mps 743 mmHg 93%
02:00 +19°C° 0 mm 3 mps 743 mmHg 94%
03:00 +19°C° 0 mm 3 mps 742 mmHg 94%
04:00 +19°C° 0 mm 3 mps 742 mmHg 94%
05:00 +19°C° 0 mm 3 mps 742 mmHg 94%
06:00 +20°C° 0 mm 3 mps 742 mmHg 89%
07:00 +22°C° 0 mm 4 mps 743 mmHg 84%
08:00 +25°C° 0 mm 4 mps 743 mmHg 79%
09:00 +26°C° 0 mm 5 mps 743 mmHg 73%
10:00 +27°C° 0 mm 5 mps 743 mmHg 68%
11:00 +28°C° 0 mm 5 mps 743 mmHg 62%
12:00 +29°C° 0 mm 5 mps 743 mmHg 60%
13:00 +29°C° 0 mm 5 mps 743 mmHg 59%
14:00 +30°C° 0 mm 5 mps 743 mmHg 57%
15:00 +29°C° 0 mm 4 mps 743 mmHg 59%
16:00 +29°C° 0 mm 4 mps 743 mmHg 61%
17:00 +29°C° 0 mm 3 mps 743 mmHg 63%
18:00 +28°C° 0 mm 3 mps 743 mmHg 67%
19:00 +27°C° 0 mm 3 mps 743 mmHg 72%
20:00 +26°C° 0 mm 3 mps 743 mmHg 76%
21:00 +25°C° 0 mm 2 mps 744 mmHg 77%
22:00 +24°C° 0 mm 2 mps 744 mmHg 78%
23:00 +23°C° 0 mm 2 mps 744 mmHg 79%

23 June, Wednesday

Time Temperature Precipitation Wind Pressure Humidity
00:00 +23°C° 0 mm 2 mps 744 mmHg 82%
01:00 +21°C° 0 mm 2 mps 744 mmHg 84%
02:00 +21°C° 0 mm 2 mps 744 mmHg 87%
03:00 +21°C° 0 mm 2 mps 744 mmHg 87%
04:00 +21°C° 0 mm 2 mps 744 mmHg 88%
05:00 +21°C° 0 mm 2 mps 744 mmHg 88%
06:00 +23°C° 0 mm 2 mps 745 mmHg 83%
07:00 +25°C° 0 mm 2 mps 745 mmHg 79%
08:00 +26°C° 0 mm 2 mps 745 mmHg 74%
09:00 +28°C° 0 mm 3 mps 745 mmHg 69%
10:00 +29°C° 0 mm 3 mps 745 mmHg 65%
11:00 +30°C° 0 mm 3 mps 745 mmHg 61%
12:00 +31°C° 0.1 mm 3 mps 745 mmHg 59%
13:00 +31°C° 0.1 mm 3 mps 745 mmHg 57%
14:00 +33°C° 0.1 mm 3 mps 745 mmHg 55%
15:00 +31°C° 0.2 mm 3 mps 745 mmHg 58%
16:00 +31°C° 0.2 mm 3 mps 745 mmHg 62%
17:00 +30°C° 0.2 mm 3 mps 745 mmHg 65%
18:00 +29°C° 0.4 mm 3 mps 745 mmHg 70%
19:00 +28°C° 0.4 mm 3 mps 745 mmHg 75%
20:00 +26°C° 0.4 mm 2 mps 745 mmHg 80%
21:00 +25°C° 1 mm 2 mps 745 mmHg 83%
22:00 +24°C° 1 mm 2 mps 746 mmHg 85%
23:00 +23°C° 1 mm 1 mps 746 mmHg 88%

24 June, Thursday

Time Temperature Precipitation Wind Pressure Humidity
00:00 +23°C° 0.6 mm 1 mps 746 mmHg 88%
01:00 +23°C° 0.6 mm 1 mps 746 mmHg 89%
02:00 +22°C° 0.6 mm 1 mps 746 mmHg 90%
03:00 +22°C° 0.1 mm 1 mps 746 mmHg 90%
04:00 +22°C° 0.1 mm 1 mps 746 mmHg 90%
05:00 +23°C° 0.1 mm 1 mps 746 mmHg 90%
06:00 +24°C° 0 mm 1 mps 746 mmHg 86%
07:00 +25°C° 0 mm 1 mps 746 mmHg 82%
08:00 +25°C° 0 mm 0 mps 746 mmHg 78%
09:00 +28°C° 0.7 mm 1 mps 746 mmHg 73%
10:00 +29°C° 0.7 mm 1 mps 746 mmHg 68%
11:00 +30°C° 0.7 mm 1 mps 746 mmHg 63%
12:00 +30°C° 0.2 mm 2 mps 746 mmHg 61%
13:00 +31°C° 0.2 mm 2 mps 746 mmHg 58%
14:00 +32°C° 0.2 mm 2 mps 746 mmHg 56%
15:00 +31°C° 0.1 mm 2 mps 746 mmHg 58%
16:00 +31°C° 0.1 mm 2 mps 745 mmHg 60%
17:00 +30°C° 0.1 mm 1 mps 745 mmHg 63%
18:00 +29°C° 0.3 mm 1 mps 745 mmHg 67%
19:00 +28°C° 0.3 mm 1 mps 745 mmHg 72%
20:00 +27°C° 0.3 mm 1 mps 744 mmHg 76%
21:00 +25°C° 0.2 mm 1 mps 744 mmHg 81%
22:00 +24°C° 0.2 mm 2 mps 744 mmHg 86%
23:00 +21°C° 0.2 mm 2 mps 744 mmHg 91%
Show more